Probability
6 10 10 10 10 6 6 6 13 16 16 16 13 19 19 19 19 19 16 16 23 26 26 32 29 23 19 19 23 16 16 16 19 19 13 10 13 13 13 6 0 3 3
13 13 10 10 10 10 13 13 13 16 13 16 19 19 26 23 26 23 26 29 29 32 29 26 29 29 29 23 23 23 19 16 16 19 13 16 16 13 13 13 6 0 0
10 13 13 10 10 13 16 16 16 16 16 16 26 29 29 26 26 26 32 32 29 26 26 26 26 26 29 32 26 26 23 19 19 16 16 13 10 10 13 10 6 3 0
16 16 13 10 13 13 13 16 16 16 19 19 19 26 29 29 23 26 23 19 23 23 26 26 26 26 26 29 32 32 26 23 23 19 19 16 16 13 6 10 10 10 0
16 16 19 13 6 10 10 16 16 13 16 16 16 16 23 26 26 23 16 19 16 23 23 23 26 26 23 23 26 32 32 23 23 23 23 19 16 16 13 6 3 3 3
23 19 19 16 13 10 10 10 13 13 13 13 19 19 19 19 13 0 6 13 19 23 19 23 23 23 16 3 3 6 6 19 26 19 19 19 19 16 16 3 3 3 3
23 19 19 16 16 13 19 16 13 16 16 16 13 16 16 16 0 0 0 0 13 10 13 13 16 23 16 19 19 0 0 0 3 19 19 23 19 16 16 16 13 6 6
26 23 23 19 23 26 23 23 23 23 19 13 13 13 16 13 0 0 0 0 3 6 6 10 13 16 13 16 16 16 16 13 3 0 10 13 13 16 13 13 16 13 6
26 26 23 26 26 26 23 23 19 19 16 16 16 16 16 16 3 0 0 0 6 13 13 13 13 13 6 0 10 16 16 19 6 0 0 6 3 0 0 6 10 3 13
26 26 23 26 29 26 19 23 23 19 16 16 16 16 19 19 19 3 0 0 13 13 13 13 6 0 3 0 0 10 13 16 19 16 3 0 0 0 0 0 6 10 10
19 26 23 23 23 23 23 23 26 23 23 16 16 19 19 19 19 6 0 3 13 13 13 13 16 10 0 0 0 3 6 3 6 3 3 10 10 10 3 0 0 3 6
13 19 23 26 26 26 23 23 23 23 19 16 16 19 19 19 19 19 6 0 3 13 13 13 16 3 0 0 0 0 0 0 3 3 3 3 3 10 10 6 6 0 0
16 16 19 16 19 29 19 23 16 13 16 16 13 19 19 16 16 13 6 0 0 0 10 6 0 0 0 0 0 0 0 0 0 3 3 3 3 6 6 6 6 6 3
16 13 13 16 16 16 19 16 16 16 19 19 26 19 19 19 19 13 13 10 3 0 0 0 0 0 0 0 0 0 0 0 0 3 3 3 3 3 3 0 0 0 3
23 19 19 16 16 16 16 16 19 23 23 23 23 23 23 19 16 13 10 10 6 6 0 0 3 10 6 6 3 3 3 0 0 3 3 3 3 3 3 0 0 0 0
23 19 19 16 16 16 16 13 10 10 10 3 13 13 16 13 6 0 0 0 0 0 0 3 3 6 10 10 10 6 3 0 3 0 0 0 3 3 3 0 0 0 0
19 19 19 16 13 16 16 16 13 10 6 0 3 3 6 3 3 0 0 0 0 0 0 3 3 3 3 3 3 6 6 3 3 0 0 0 0 3 0 0 0 0 0
10 10 13 10 13 13 13 16 13 13 13 10 3 0 0 0 0 0 0 0 0 0 3 3 3 3 3 3 3 3 3 6 3 3 0 0 3 6 3 0 0 0 0
10 10 13 10 10 6 10 10 10 10 10 10 6 6 0 0 0 0 0 0 3 3 3 3 3 3 3 3 3 3 3 3 3 3 0 0 3 3 3 3 3 0 0
10 10 13 10 10 6 3 3 3 6 10 6 6 6 6 6 6 3 0 3 3 3 3 3 3 3 3 3 3 3 3 3 3 0 3 3 3 3 3 3 3 0 0
13 10 3 6 6 6 6 6 6 6 6 6 6 6 6 6 6 6 6 6 6 3 3 3 3 3 3 3 3 3 3 3 0 0 3 3 3 6 6 6 3 0 0
16 16 10 3 6 10 10 10 6 6 6 6 6 6 3 6 6 6 6 6 6 3 3 3 3 3 3 3 3 3 3 6 3 0 6 6 3 6 6 3 0 0 0
19 16 13 10 10 10 10 10 6 6 6 6 6 6 6 6 6 6 6 6 3 3 3 3 3 3 3 3 3 3 3 6 3 3 3 0 3 3 3 3 0 0 0
16 13 10 10 6 6 6 3 6 6 6 6 6 6 6 6 6 6 6 3 3 3 3 3 3 3 3 3 3 3 3 3 0 0 0 0 0 3 3 3 3 0 0
13 13 10 10 6 6 3 3 3 6 6 6 6 6 6 6 6 6 6 3 3 3 3 3 3 3 3 0 0 0 0 0 0 0 0 0 0 0 0 3 3 3 0
10 10 6 3 3 3 3 3 3 3 6 6 6 6 6 6 6 6 6 3 3 0 0 0 0 0 3 0 0 0 0 0 0 0 0 0 0 0 0 3 3 3 0
Height
5900 5899 5898 5898 5897 5897 5896 5895 5895 5894 5893 5892 5891 5890 5889 5888 5887 5886 5885 5884 5883 5882 5880 5879 5878 5877 5876 5874 5873 5871 5870 5869 5867 5866 5863 5861 5859 5856 5854 5852 5850 5848 5846
5897 5897 5896 5895 5895 5894 5894 5893 5892 5891 5890 5889 5888 5887 5886 5885 5884 5883 5882 5881 5879 5878 5877 5875 5874 5872 5871 5870 5868 5867 5866 5864 5863 5861 5859 5857 5854 5852 5849 5847 5845 5843 5841
5894 5894 5893 5892 5892 5891 5890 5889 5888 5887 5887 5886 5885 5884 5882 5881 5880 5879 5878 5877 5875 5874 5872 5871 5869 5868 5866 5865 5863 5862 5861 5859 5857 5855 5854 5851 5849 5847 5845 5842 5840 5837 5835
5891 5890 5889 5889 5888 5887 5886 5886 5885 5884 5883 5882 5881 5879 5878 5877 5876 5874 5873 5872 5870 5869 5867 5866 5864 5863 5861 5859 5858 5856 5855 5853 5851 5849 5847 5845 5843 5840 5838 5836 5834 5831 5829
5887 5886 5885 5884 5883 5883 5882 5881 5880 5879 5878 5877 5876 5875 5873 5872 5870 5869 5868 5866 5865 5864 5862 5860 5859 5857 5855 5853 5851 5850 5848 5846 5844 5842 5840 5838 5836 5834 5831 5829 5827 5824 5822
5883 5882 5881 5880 5878 5878 5877 5876 5875 5874 5873 5872 5871 5869 5868 5866 5865 5863 5862 5860 5859 5857 5856 5854 5852 5851 5849 5846 5844 5843 5841 5839 5837 5835 5833 5831 5829 5826 5824 5821 5819 5816 5814
5878 5877 5876 5875 5874 5873 5872 5871 5870 5869 5868 5866 5865 5863 5862 5860 5859 5857 5855 5854 5852 5850 5849 5847 5846 5844 5842 5839 5837 5835 5833 5831 5829 5827 5825 5823 5820 5818 5815 5813 5810 5808 5805
5872 5871 5870 5869 5868 5867 5866 5865 5863 5862 5861 5860 5858 5857 5855 5854 5852 5850 5849 5847 5845 5843 5842 5840 5838 5836 5834 5832 5830 5827 5825 5823 5821 5818 5816 5814 5811 5809 5806 5804 5801 5799 5796
5866 5865 5864 5863 5861 5860 5859 5857 5856 5855 5854 5852 5851 5850 5848 5847 5845 5843 5841 5839 5838 5836 5834 5833 5831 5829 5826 5824 5822 5819 5817 5815 5812 5809 5807 5804 5802 5799 5797 5794 5792 5789 5787
5859 5858 5857 5855 5854 5853 5852 5850 5849 5848 5847 5846 5845 5843 5841 5840 5838 5836 5834 5832 5830 5828 5827 5825 5823 5820 5818 5815 5813 5811 5808 5806 5803 5800 5797 5794 5792 5789 5787 5784 5782 5779 5776
5852 5850 5849 5848 5847 5846 5845 5843 5842 5841 5840 5839 5837 5836 5834 5832 5830 5828 5826 5824 5822 5819 5817 5816 5814 5811 5809 5807 5805 5802 5800 5797 5793 5790 5787 5785 5782 5779 5777 5774 5771 5768 5766
5845 5843 5842 5841 5840 5839 5837 5836 5835 5834 5832 5831 5830 5828 5826 5823 5821 5820 5818 5815 5813 5811 5809 5807 5805 5802 5800 5798 5795 5793 5790 5787 5784 5780 5777 5774 5772 5769 5766 5764 5760 5757 5754
5837 5836 5835 5834 5832 5831 5830 5829 5827 5826 5824 5823 5821 5820 5818 5815 5813 5811 5809 5806 5804 5802 5800 5797 5795 5793 5790 5788 5785 5783 5780 5777 5774 5771 5767 5764 5762 5759 5756 5753 5749 5746 5743
5830 5829 5827 5826 5825 5823 5822 5820 5819 5817 5816 5814 5813 5811 5809 5807 5805 5802 5799 5797 5795 5792 5790 5787 5785 5783 5780 5778 5775 5772 5769 5767 5764 5761 5757 5754 5751 5748 5745 5742 5738 5735 5732
5822 5820 5819 5818 5817 5815 5814 5812 5810 5809 5807 5805 5803 5801 5799 5797 5795 5792 5790 5787 5785 5782 5780 5777 5775 5772 5770 5767 5764 5761 5759 5756 5753 5749 5746 5743 5740 5737 5733 5730 5727 5723 5720
5813 5812 5811 5810 5808 5807 5805 5803 5801 5799 5797 5795 5793 5792 5789 5787 5785 5782 5780 5777 5774 5772 5769 5767 5764 5762 5759 5756 5754 5751 5748 5745 5741 5738 5735 5732 5728 5725 5722 5718 5715 5712 5709
5804 5803 5802 5801 5800 5798 5796 5795 5793 5791 5788 5785 5783 5781 5779 5777 5774 5772 5769 5766 5763 5761 5758 5756 5753 5751 5748 5745 5742 5740 5737 5733 5729 5726 5723 5720 5716 5713 5710 5706 5703 5700 5697
5795 5794 5793 5792 5790 5789 5787 5785 5783 5781 5779 5776 5774 5771 5769 5766 5763 5760 5758 5755 5752 5749 5747 5745 5742 5740 5737 5734 5731 5728 5725 5721 5718 5714 5711 5708 5704 5701 5698 5695 5692 5689 5686
5786 5784 5783 5782 5780 5779 5777 5775 5773 5771 5769 5766 5764 5761 5758 5755 5752 5749 5746 5744 5741 5738 5735 5733 5730 5727 5725 5722 5718 5715 5712 5709 5706 5702 5699 5696 5692 5689 5686 5683 5680 5678 5674
5776 5774 5772 5771 5769 5767 5766 5764 5762 5760 5758 5755 5753 5750 5747 5744 5741 5738 5735 5732 5729 5727 5724 5721 5718 5715 5712 5709 5706 5703 5700 5697 5693 5690 5687 5684 5681 5678 5675 5671 5668 5665 5662
5765 5764 5762 5760 5758 5756 5754 5753 5751 5749 5746 5744 5742 5739 5736 5733 5730 5727 5724 5721 5718 5715 5712 5710 5707 5704 5700 5697 5694 5690 5687 5684 5681 5678 5675 5672 5669 5666 5663 5659 5656 5653 5650
5754 5753 5751 5749 5747 5745 5743 5741 5739 5737 5735 5733 5730 5727 5724 5721 5719 5716 5713 5710 5707 5704 5701 5698 5695 5692 5688 5685 5681 5678 5674 5671 5668 5665 5662 5659 5656 5653 5650 5647 5644 5641 5638
5743 5741 5739 5737 5735 5733 5732 5730 5728 5726 5723 5721 5719 5716 5713 5711 5708 5705 5703 5699 5696 5693 5690 5687 5683 5680 5676 5672 5669 5665 5662 5659 5655 5652 5649 5646 5643 5640 5637 5634 5632 5628 5625
5732 5730 5728 5726 5724 5722 5721 5719 5717 5715 5713 5710 5708 5705 5703 5700 5697 5694 5691 5688 5685 5681 5678 5674 5671 5668 5664 5660 5657 5653 5650 5646 5643 5639 5636 5633 5630 5627 5624 5621 5619 5615 5612
5721 5719 5717 5715 5713 5710 5709 5708 5706 5704 5702 5699 5697 5695 5692 5689 5686 5683 5680 5677 5673 5670 5666 5663 5659 5656 5652 5648 5644 5641 5637 5634 5631 5627 5624 5620 5617 5614 5611 5609 5606 5602 5599
5710 5708 5706 5705 5703 5701 5699 5697 5696 5694 5691 5689 5687 5684 5682 5679 5676 5672 5669 5666 5662 5659 5655 5651 5648 5644 5640 5636 5632 5628 5625 5621 5618 5614 5611 5608 5605 5602 5599 5596 5593 5590 5587
Wind_Speed
7 7 7 8 8 8 8 8 8 9 9 10 11 11 12 12 12 12 13 14 14 15 15 16 16 16 15 15 15 15 16 16 16 16 16 17 17 18 18 18 18 18 19
9 9 10 10 10 11 10 10 11 11 11 12 12 13 13 14 14 14 15 15 16 16 17 18 18 18 18 18 17 17 17 18 18 18 18 19 19 20 20 20 20 20 21
10 11 11 12 12 13 13 13 13 13 14 14 14 15 15 15 16 16 17 17 17 18 18 19 19 20 20 20 20 20 20 20 20 20 20 21 22 22 22 22 22 23 23
13 13 13 14 15 15 15 16 16 16 16 16 17 17 17 17 18 18 19 19 19 19 19 19 20 20 21 21 21 22 23 23 22 23 22 23 24 25 25 24 24 25 26
15 15 16 16 17 17 17 17 17 18 18 18 19 19 19 19 20 20 20 21 21 20 21 21 22 21 22 23 24 24 25 25 25 25 25 25 26 27 27 27 27 27 28
17 17 17 18 18 18 18 18 18 19 20 20 21 21 21 21 21 22 22 22 23 23 23 23 23 23 24 24 25 25 26 27 27 28 27 28 28 29 30 29 29 29 29
20 20 19 19 19 19 19 20 20 21 21 22 23 23 23 23 23 24 24 25 25 25 24 24 25 25 25 26 26 27 28 28 29 29 30 30 30 31 32 31 31 31 31
22 21 21 21 21 22 22 22 22 22 23 24 24 25 24 24 24 25 26 26 27 26 26 26 26 26 27 28 28 28 30 30 30 31 32 32 32 33 33 33 32 33 33
24 24 23 24 24 23 23 24 24 24 25 26 26 25 25 25 26 27 27 27 27 27 27 27 27 28 28 29 29 29 30 31 32 33 33 34 34 34 35 34 34 34 34
26 26 26 26 25 25 25 26 26 26 27 27 27 27 27 27 27 27 28 29 29 29 28 29 29 30 30 30 30 30 31 32 33 34 34 35 35 35 36 36 36 36 36
26 26 26 26 27 27 27 27 28 28 28 28 28 28 29 29 29 29 29 31 31 31 30 30 30 31 30 31 32 32 33 33 34 35 36 35 36 37 37 38 38 38 38
26 26 26 26 27 27 28 28 28 29 30 30 30 31 31 31 31 31 32 32 32 32 32 32 32 32 32 33 34 34 35 35 35 35 35 37 37 38 38 39 39 40 40
27 27 27 27 27 28 28 29 30 31 31 31 32 33 33 33 33 33 33 33 34 34 34 34 34 34 34 35 35 36 36 36 35 35 36 36 37 38 38 39 40 41 40
28 28 29 29 29 29 31 31 32 33 33 33 33 34 34 34 35 35 35 35 35 35 36 36 35 35 36 37 37 37 36 36 37 38 38 38 39 39 39 40 40 40 40
30 30 29 30 31 32 33 33 34 35 36 36 36 35 36 35 35 36 36 36 36 37 37 37 36 36 37 37 37 37 38 39 39 39 39 39 40 40 40 40 40 40 40
31 31 31 31 32 32 33 34 35 36 36 37 37 37 37 37 37 37 37 38 38 38 38 37 37 37 37 38 38 38 39 40 40 40 40 40 40 40 40 40 39 39 38
33 33 33 33 33 33 33 34 35 36 36 37 37 37 37 37 38 39 39 39 39 38 38 38 38 38 38 38 39 40 40 40 40 40 40 40 40 39 38 38 38 38 38
33 33 34 35 35 36 36 35 35 36 36 37 38 38 38 39 39 39 39 39 39 39 39 38 38 39 40 40 41 40 40 40 40 40 40 39 39 38 38 38 37 37 37
34 35 36 36 37 38 37 37 37 37 37 37 38 39 40 41 41 40 39 39 38 38 38 38 39 39 40 41 40 40 40 40 40 40 39 39 39 38 38 39 39 39 39
36 37 38 38 38 38 38 37 37 37 38 38 39 40 40 41 40 39 38 38 37 37 38 39 39 39 40 40 40 40 41 41 40 40 39 39 39 39 39 39 39 40 40
37 38 38 39 39 39 39 38 38 38 38 39 39 40 41 41 39 38 37 37 37 38 38 38 39 39 40 40 40 40 41 41 41 41 41 40 40 40 40 40 40 39 40
36 37 38 39 39 39 38 37 37 38 38 38 39 39 39 39 38 37 37 37 37 38 38 39 39 40 40 40 40 41 41 42 42 42 41 41 40 39 40 40 40 40 40
37 38 38 38 38 38 37 37 37 37 37 38 38 38 38 38 37 37 37 37 38 38 39 39 39 40 40 41 41 41 40 41 41 40 40 40 39 39 40 40 40 40 40
39 38 38 37 36 36 37 37 36 36 36 36 36 37 37 37 36 36 37 38 39 39 39 39 39 39 39 40 40 40 40 40 40 40 40 40 39 39 40 40 41 41 40
38 38 37 36 36 35 35 35 35 36 36 37 37 37 36 36 36 36 37 37 38 38 38 39 39 40 40 40 40 39 39 39 40 40 39 39 38 38 39 39 39 39 39
36 36 36 36 35 34 34 34 34 35 35 35 35 35 36 36 36 36 37 37 37 38 39 39 39 39 39 39 39 39 39 39 39 38 38 38 38 38 38 38 38 38 39
Wind_Direction
292 293 292 291 289 289 289 289 289 290 294 295 298 288 289 290 290 290 290 290 289 290 293 297 299 300 300 303 305 306 307 307 307 308 308 308 310 310 308 307 307 308 308
287 288 290 291 288 288 287 286 286 287 289 293 295 292 289 289 289 291 291 291 292 292 292 293 294 297 298 298 299 302 302 303 304 305 304 304 304 304 304 303 302 302 304
288 288 288 288 288 287 286 286 285 286 288 290 291 290 290 291 291 291 291 292 292 293 294 295 295 295 297 297 296 297 298 299 300 301 302 302 302 302 301 300 299 299 299
288 288 288 288 288 286 284 283 285 286 287 288 288 289 290 290 289 289 291 292 294 294 296 297 296 295 296 296 294 295 296 296 296 297 298 300 300 300 299 298 298 298 298
290 290 288 287 288 286 282 282 285 287 287 288 289 290 290 290 289 291 290 293 294 293 294 295 295 295 295 295 294 293 294 294 294 295 295 296 299 299 298 297 297 297 297
291 290 288 286 285 284 284 284 285 286 286 287 288 289 289 289 289 290 290 290 292 292 293 294 295 294 294 294 294 292 293 293 292 292 293 294 296 297 297 297 297 297 296
290 288 286 285 283 284 284 284 285 285 286 287 288 287 286 287 288 289 288 289 289 291 291 292 293 294 295 295 294 293 292 293 292 291 294 295 295 295 296 296 297 297 297
289 287 285 283 283 284 283 283 282 283 285 285 286 286 286 287 289 288 288 288 289 290 291 292 292 292 293 293 293 294 293 294 294 294 294 294 294 295 296 296 297 297 296
290 287 285 282 281 283 282 280 280 282 283 285 285 287 287 289 290 289 288 288 289 289 290 292 292 292 293 293 294 295 297 296 295 296 294 293 294 294 295 295 296 297 297
289 286 283 282 282 283 282 283 283 283 284 286 286 286 287 289 289 289 289 288 289 289 289 290 292 292 292 293 294 294 296 297 297 296 296 294 293 294 295 295 294 295 296
289 287 284 283 284 285 285 286 287 287 287 287 286 286 287 287 287 288 288 288 289 290 290 290 291 291 292 293 294 294 294 295 296 295 294 293 294 295 294 294 294 294 295
288 287 285 285 286 286 286 286 286 287 289 288 288 287 288 290 289 287 287 287 288 289 290 289 289 288 289 292 293 294 294 294 294 293 292 292 294 294 294 294 295 295 295
286 286 285 285 286 287 287 286 287 288 289 287 287 288 289 290 290 289 290 288 288 289 289 288 288 288 289 290 292 294 294 293 294 293 293 293 293 294 295 296 296 296 295
285 285 285 284 285 287 288 287 286 287 287 288 289 289 289 289 290 289 290 290 290 290 289 289 288 289 289 290 292 293 292 292 292 293 293 293 293 295 295 295 295 297 298
284 285 284 284 285 287 288 288 287 288 288 288 288 289 290 290 290 290 291 290 290 290 290 289 290 290 290 291 291 291 292 293 292 291 292 293 294 295 295 295 295 295 296
281 284 284 284 285 286 288 288 289 289 290 291 290 290 292 292 291 291 291 290 290 291 289 289 290 291 291 291 291 290 291 291 291 292 292 293 294 295 295 294 294 295 296
281 283 284 286 286 286 288 288 289 289 290 290 291 291 292 293 291 291 291 291 291 291 290 290 290 290 290 290 290 290 291 292 292 292 293 293 293 294 294 293 294 294 295
282 283 284 285 285 286 287 288 289 288 288 289 291 291 291 292 291 291 290 291 291 290 290 290 289 289 289 289 290 290 291 292 292 293 293 293 294 293 293 293 294 295 295
282 283 284 284 285 286 287 288 288 288 288 289 290 290 291 291 292 291 290 290 290 291 290 289 289 289 290 292 291 291 291 292 292 293 293 293 294 293 293 293 294 295 296
282 283 284 284 285 285 285 286 288 288 288 288 289 290 292 293 292 291 290 291 292 292 291 292 292 292 293 294 293 292 291 292 292 292 292 292 293 293 295 295 296 295 295
283 285 285 285 286 286 286 286 287 288 289 289 289 290 291 292 292 291 291 291 291 292 292 293 294 295 295 295 295 294 293 292 292 291 291 291 291 292 294 295 295 295 295
283 284 285 285 285 286 287 287 287 288 289 289 290 291 291 292 292 291 291 292 292 293 293 294 295 295 294 294 294 295 295 293 292 291 290 290 291 292 293 294 294 294 294
283 284 285 286 286 286 286 287 288 288 289 289 290 290 291 291 292 292 291 292 293 294 294 294 295 296 295 294 294 294 294 294 293 292 292 291 291 292 293 293 294 294 293
282 283 284 285 285 286 286 288 288 288 289 290 289 290 291 291 291 292 293 294 295 295 296 296 296 296 297 297 296 295 296 296 295 293 293 292 292 292 292 293 294 294 294
282 282 284 285 287 288 287 287 288 288 289 289 290 291 292 292 292 293 294 295 296 296 296 296 297 297 298 297 296 295 295 295 294 295 294 294 292 292 292 293 294 294 294
282 284 286 288 289 288 289 290 289 290 292 291 291 291 292 292 293 293 294 294 294 295 296 297 297 298 298 298 297 296 296 295 294 294 294 293 292 292 293 294 295 295 295